Regional Weather Roundup
Issued by NWS

Home | Current Version | Previous Version | Text Only | Print | Product List | Glossary Off
Versions: 1 2 3 4 5 6 7 8 9 10 11 12 13 14 15 16 17 18 19 20 21 22 23 24 25 26 27 28 29 30 31 32 33 34 35 36 37 38 39 40 41 42 43 44 45 46 47 48 49 50

000
ASUS44 KMEG 311610
RWRTN
TENNESSEE HOURLY STATE WEATHER ROUNDUP
NATIONAL WEATHER SERVICE MEMPHIS TN
1100 AM CDT MON AUG 31 2015

TNZ002-004-019-021-049-052-054-088>092-311700-
WEST TENNESSEE

CITY           SKY/WX    TMP DP  RH WIND       PRES   REMARKS
MEMPHIS INTL   MOSUNNY   83  69  62 S5        30.11S
NWS MEMPHIS      N/A     82 N/A N/A MISG        N/A
JACKSON        SUNNY     78  69  73 CALM      30.13S
DYERSBURG      SUNNY    N/A N/A N/A MISG        N/A
UNION CITY     SUNNY     81  70  69 CALM      30.12S
PARIS          SUNNY     77  66  69 S5        30.15S
LEXINGTON      SUNNY     79  66  65 VRB3      30.13F
$$

TNZ008-025-027-028-033-062-065-066-311700-
NORTH MIDDLE TENNESSEE

CITY           SKY/WX    TMP DP  RH WIND       PRES   REMARKS
NASHVILLE      PTSUNNY   79  64  60 CALM      30.16S
CLARKSVILLE    SUNNY     79  65  62 CALM      30.15S
SMYRNA         MOSUNNY   85  68  56 E6        30.17S
COOKEVILLE     MOSUNNY   81  70  69 N3        30.17S
CROSSVILLE     MOSUNNY   76  61  59 VRB3      30.22R
$$

TNZ061-075-076-078-094-096-097-311700-
SOUTH MIDDLE TENNESSEE

CITY           SKY/WX    TMP DP  RH WIND       PRES   REMARKS
FAYETTEVILLE     N/A     73  64  73 CALM      30.17R
TULLAHOMA      MOSUNNY   75  64  69 NE6       30.18S
WINCHESTER     PTSUNNY   75  66  73 N5        30.17R
MCMINNVILLE    SUNNY     79  68  69 CALM      30.18S
COLUMBIA       PTSUNNY   81  70  69 CALM      30.15R
SHELBYVILLE    MOSUNNY   79  70  73 CALM      30.18R
$$

TNZ017-018-042-046-047-311700-
NORTHEAST TENNESSEE

CITY           SKY/WX    TMP DP  RH WIND       PRES   REMARKS
TRI CITIES     MOSUNNY   78  63  59 CALM      30.19S
ELIZABETHTON   SUNNY     75  64  69 SW7       30.19S
$$

TNZ012-013-036-069-073-074-311700-
CENTRAL EAST TENNESSEE

CITY           SKY/WX    TMP DP  RH WIND       PRES   REMARKS
KNOXVILLE      MOSUNNY   81  64  56 E3        30.17S
OAK RIDGE      MOSUNNY   78  64  61 SE5       30.18S
GATLINBURG     SUNNY     79  63  57 VRB6      30.16F
MORRISTOWN     SUNNY     77  64  65 CALM      30.19F
$$

TNZ083-085-099-311700-
SOUTHEAST TENNESSEE

CITY           SKY/WX    TMP DP  RH WIND       PRES   REMARKS
CHATTANOOGA    PTSUNNY   78  65  63 CALM      30.17R
$$

SKY/WX REPORTED AS FAIR MEANS FEW OR NO CLOUDS BELOW
12 THOUSAND FEET.



USA.gov is the U.S. government's official web portal to all federal, state and local government web resources and services.